Location: El Abasto
(10.3790°N, 67.5897°W)
Time: 18:18:01
(UTC+00:00)

CZ-2C R/B - Pass Details

Date: 19 May 2024
Orbit: 463 x 512 km, 97.8° (Epoch: 12 June)

Event Time Altitude Azimuth Distance (km) Brightness Sun altitude
Rises 23:00:27 0° 183° (S) 2,621 6.1 -4.2°
Reaches altitude 10° 23:02:39 10° 192° (SSW) 1,731 5.3 -4.7°
Maximum altitude 23:06:06 35° 259° (W) 829 4.4 -5.5°
Drops below altitude 10° 23:09:30 10° 327° (NNW) 1,712 6.3 -6.3°
Sets 23:11:41 0° 336° (NNW) 2,587 7.0 -6.8°
